CFG47T EDDM-EDDN

Flight info

Callsign CFG47T
Flight time 0h 26m
Altitude 16000
Route INPUD3Q/08L INPUD Y102 UPALA UPALA1T
Aircraft A320/M-SDE3FGHIRWY/LB1

Departure

Time 2026-05-01 08:05
Airport Munich Airport (EDDM)

Arrival

Time 2026-05-01 08:31
Airport Nuremberg Airport (EDDN)
Time Latitude Longitude Altitude Speed Heading
2026-05-01 07:47 48.35378 11.78325 1466 ft 0 kts 84°
2026-05-01 07:56 48.35376 11.78291 1435 ft 2 kts 84°
2026-05-01 07:57 48.35374 11.78266 1459 ft 3 kts 84°
2026-05-01 07:57 48.35370 11.78214 1457 ft 3 kts 60°
2026-05-01 07:58 48.35348 11.78175 1456 ft 3 kts 27°
2026-05-01 07:58 48.35316 11.78165 1463 ft 3 kts 347°
2026-05-01 07:59 48.35307 11.78168 1457 ft 0 kts 343°
2026-05-01 08:00 48.35433 11.77763 1464 ft 17 kts 353°
2026-05-01 08:01 48.35741 11.77709 1466 ft 13 kts 353°
2026-05-01 08:01 48.35824 11.77698 1460 ft 11 kts 356°
2026-05-01 08:01 48.35888 11.77688 1459 ft 0 kts 353°
2026-05-01 08:02 48.35890 11.77688 1459 ft 2 kts 353°
2026-05-01 08:02 48.35954 11.77646 1463 ft 16 kts 301°
2026-05-01 08:03 48.35930 11.77234 1467 ft 19 kts 263°
2026-05-01 08:03 48.35943 11.77054 1463 ft 17 kts 303°
2026-05-01 08:03 48.36107 11.76957 1462 ft 0 kts 353°
2026-05-01 08:04 48.36210 11.76938 1463 ft 24 kts 354°
2026-05-01 08:04 48.36342 11.77665 1465 ft 99 kts 83°
2026-05-01 08:05 48.36579 11.80809 2448 ft 176 kts 84°
2026-05-01 08:05 48.36728 11.82722 3090 ft 194 kts 85°
2026-05-01 08:05 48.36896 11.84867 3673 ft 219 kts 83°
2026-05-01 08:06 48.39006 11.88402 5182 ft 266 kts 14°
2026-05-01 08:06 48.42510 11.86658 7112 ft 290 kts 310°
2026-05-01 08:07 48.44567 11.81350 9096 ft 295 kts 308°
2026-05-01 08:07 48.47218 11.76564 10967 ft 300 kts 315°
2026-05-01 08:08 48.48638 11.74239 11835 ft 303 kts 315°
2026-05-01 08:08 48.51502 11.69466 13582 ft 311 kts 315°
2026-05-01 08:09 48.54358 11.64503 15132 ft 319 kts 314°
2026-05-01 08:09 48.55826 11.61961 15886 ft 321 kts 318°
2026-05-01 08:09 48.57563 11.59764 16276 ft 333 kts 331°
2026-05-01 08:10 48.62080 11.56818 16411 ft 378 kts 343°
2026-05-01 08:10 48.67309 11.53848 16410 ft 422 kts 342°
2026-05-01 08:11 48.72956 11.50582 16825 ft 440 kts 342°
2026-05-01 08:11 48.78385 11.47394 18263 ft 393 kts 342°
2026-05-01 08:12 48.83349 11.44474 17610 ft 376 kts 342°
2026-05-01 08:12 48.85781 11.43059 17084 ft 373 kts 342°
2026-05-01 08:12 48.90553 11.40293 16385 ft 360 kts 342°
2026-05-01 08:13 48.92860 11.38943 16402 ft 351 kts 342°
2026-05-01 08:13 48.95128 11.37613 16402 ft 349 kts 342°
2026-05-01 08:13 48.99667 11.34963 16402 ft 348 kts 342°
2026-05-01 08:14 49.01934 11.33638 16359 ft 349 kts 342°
2026-05-01 08:14 49.04202 11.32305 16110 ft 348 kts 342°
2026-05-01 08:14 49.06431 11.30991 15857 ft 347 kts 342°
2026-05-01 08:14 49.08683 11.29668 15613 ft 346 kts 342°
2026-05-01 08:15 49.10933 11.28347 15364 ft 345 kts 342°
2026-05-01 08:15 49.15411 11.25703 14882 ft 343 kts 342°
2026-05-01 08:15 49.17637 11.24387 14642 ft 342 kts 342°
2026-05-01 08:16 49.19850 11.23057 14403 ft 342 kts 339°
2026-05-01 08:16 49.21914 11.21321 14164 ft 343 kts 328°
2026-05-01 08:16 49.23789 11.19017 13896 ft 345 kts 321°
2026-05-01 08:16 49.25597 11.16597 13629 ft 343 kts 324°
2026-05-01 08:17 49.27580 11.14612 13365 ft 338 kts 336°
2026-05-01 08:17 49.29724 11.13312 13113 ft 334 kts 347°
2026-05-01 08:17 49.31997 11.12682 12844 ft 330 kts 358°
2026-05-01 08:17 49.34277 11.12746 12591 ft 326 kts
2026-05-01 08:18 49.36528 11.13152 12329 ft 327 kts
2026-05-01 08:18 49.40421 11.09879 11827 ft 337 kts 303°
2026-05-01 08:19 49.41374 11.02890 11328 ft 339 kts 269°
2026-05-01 08:19 49.41318 10.99267 11083 ft 339 kts 268°
2026-05-01 08:19 49.41250 10.95659 10838 ft 337 kts 268°
2026-05-01 08:19 49.41230 10.92102 10603 ft 336 kts 272°
2026-05-01 08:20 49.41433 10.88543 10365 ft 332 kts 277°
2026-05-01 08:20 49.41771 10.85106 10235 ft 319 kts 280°
2026-05-01 08:20 49.42147 10.81830 10085 ft 306 kts 281°
2026-05-01 08:20 49.42518 10.78617 9964 ft 303 kts 280°
2026-05-01 08:21 49.42871 10.75421 9819 ft 303 kts 279°
2026-05-01 08:21 49.43201 10.72257 9406 ft 301 kts 279°
2026-05-01 08:21 49.43516 10.69087 8944 ft 299 kts 278°
2026-05-01 08:21 49.43821 10.65931 8492 ft 299 kts 278°
2026-05-01 08:22 49.44119 10.62762 8042 ft 300 kts 277°
2026-05-01 08:22 49.44417 10.59587 7600 ft 300 kts 278°
2026-05-01 08:22 49.44714 10.56451 7443 ft 295 kts 279°
2026-05-01 08:22 49.45357 10.53486 7315 ft 293 kts 301°
2026-05-01 08:23 49.46707 10.51179 7188 ft 289 kts 327°
2026-05-01 08:23 49.48514 10.49930 7063 ft 284 kts 352°
2026-05-01 08:23 49.50454 10.49855 6945 ft 277 kts 14°
2026-05-01 08:23 49.52208 10.50855 6818 ft 270 kts 36°
2026-05-01 08:24 49.53588 10.52741 6696 ft 263 kts 56°
2026-05-01 08:24 49.54437 10.55208 6349 ft 261 kts 76°
2026-05-01 08:24 49.54632 10.57931 6081 ft 251 kts 96°
2026-05-01 08:24 49.54398 10.60531 5946 ft 240 kts 99°
2026-05-01 08:25 49.54168 10.63022 5830 ft 230 kts 100°
2026-05-01 08:25 49.53945 10.65403 5726 ft 219 kts 99°
2026-05-01 08:25 49.53732 10.67664 5622 ft 209 kts 99°
2026-05-01 08:25 49.53526 10.69839 5541 ft 206 kts 99°
2026-05-01 08:26 49.53318 10.72033 5399 ft 206 kts 100°
2026-05-01 08:26 49.53111 10.74214 5151 ft 205 kts 99°
2026-05-01 08:26 49.52906 10.76369 4895 ft 203 kts 100°
2026-05-01 08:26 49.52700 10.78531 4606 ft 203 kts 99°
2026-05-01 08:27 49.52495 10.80675 4334 ft 202 kts 101°
2026-05-01 08:27 49.52289 10.82831 4062 ft 204 kts 99°
2026-05-01 08:27 49.52081 10.84993 3777 ft 206 kts 101°
2026-05-01 08:27 49.51874 10.87154 3511 ft 204 kts 100°
2026-05-01 08:28 49.51670 10.89278 3231 ft 195 kts 100°
2026-05-01 08:28 49.51472 10.91328 2986 ft 190 kts 100°
2026-05-01 08:28 49.51283 10.93293 2730 ft 181 kts 98°
2026-05-01 08:28 49.51103 10.95156 2458 ft 169 kts 99°
2026-05-01 08:29 49.50938 10.96849 2266 ft 151 kts 99°
2026-05-01 08:29 49.50789 10.98381 2059 ft 139 kts 99°
2026-05-01 08:29 49.50650 10.99816 1859 ft 134 kts 99°
2026-05-01 08:29 49.50512 11.01231 1672 ft 133 kts 98°
2026-05-01 08:30 49.50377 11.02612 1479 ft 131 kts 98°
2026-05-01 08:30 49.50240 11.04007 1317 ft 132 kts 98°
2026-05-01 08:30 49.50104 11.05401 1146 ft 131 kts 100°
2026-05-01 08:30 49.49974 11.06782 1034 ft 128 kts 100°
2026-05-01 08:31 49.49861 11.07893 1029 ft 80 kts 99°
2026-05-01 08:31 49.49804 11.08469 1036 ft 29 kts 99°
2026-05-01 08:31 49.49713 11.08562 1036 ft 18 kts 200°
2026-05-01 08:31 49.49658 11.08478 1035 ft 0 kts 234°
2026-05-01 08:33 49.49647 11.08455 1034 ft 13 kts 234°
2026-05-01 08:33 49.49576 11.08356 1032 ft 14 kts 192°
2026-05-01 08:33 49.49539 11.08230 1028 ft 15 kts 277°
2026-05-01 08:34 49.49555 11.08068 1028 ft 15 kts 278°
2026-05-01 08:34 49.49569 11.07933 1027 ft 11 kts 279°
2026-05-01 08:34 49.49575 11.07828 1026 ft 7 kts 256°
2026-05-01 08:34 49.49534 11.07794 1026 ft 7 kts 190°
2026-05-01 08:35 49.49520 11.07791 1025 ft 0 kts 188°
2026-05-01 08:35 49.49517 11.07791 1025 ft 0 kts 188°